Weather in Ust-Karsk

Russia / Zabaykalsky Krai     52°42′14″N   118°48′21″E
temp.,
°C
wind,
m/s
gust,
m/s
humid.,
%
clouds,
%
prec.,
mm/h
press.,
hPa
HPBL,
m
25 january, mon
mon2500:00−21nne2292100 0.0 103789
03:00−21nne2488100 0.0 1035217
06:00−21nne2498100 0.4 1033272
09:00−22nne3698100 1.4 1031314
12:00−20ne3795100 1.1 1029436
15:00−19ne4789100 1.8 1024614
18:00−21ne4997100 1.7 1023616
21:00−21ne4997100 3.4 1020673
26 january, tue
tue2600:00−22nne4897100 1.1 1019759
03:00−24nne4796100 1.6 1018587
06:00−25nne4795100 0.3 1018607
09:00−25nne3897100 0.6 1018875
12:00−23n2589100 0.3 1018940
15:00−21n3686100 0.6 10161051
18:00−22nw2598100 0.2 1017186
21:00−23nw2397100 0.3 101881
27 january, wed
wed2700:00−23nnw2898100 0.1 1019388
03:00−24n1598100 0.3 1021231
06:00−25n1399100 0.2 102380
09:00−26n2896100 0.3 1024515
12:00−23n4881100 0.0 10251211
15:00−23nne3780100 0.1 10251180
18:00−25nne2394100 0.1 102689
21:00−28ne1493100 0.1 1028101
28 january, thu
thu2800:00−28nnw1194100 0.0 102919
03:00−29s0198100 0.1 102919
06:00−29sw0198100 0.1 102919
09:00−30wnw1198100 0.1 103019
12:00−25nw1286100 0.0 1029349
15:00−24n3575100 0.1 10281252
18:00−28nnw1189100 0.0 102819
21:00−31sw119388 0.0 103019
29 january, fri
fri2900:00−33sw11942 0.0 103019
03:00−35sw11942 0.0 103019
06:00−36ssw11965 0.0 103019
09:00−37ssw11975 0.0 103019
12:00−30ssw12842 0.0 1028304
15:00−26ssw237745 0.0 1025546
18:00−31s229156 0.0 102619
21:00−34ssw119328 0.0 102719